Weather History for Great Bend, KS

Change the Weather History Date:

Wednesday, December 12, 2012

  Actual Average Record
Temperature  
Mean Temperature 40 °F -  
Max Temperature 55 °F 47 °F 61 °F (1969)
Min Temperature 24 °F 24 °F -7 °F (1961)
Degree Days  
Heating Degree Days 26    
Moisture  
Dew Point 14 °F    
Average Humidity 37    
Maximum Humidity 55    
Minimum Humidity 21    
Precipitation  
Precipitation 0.01 in - - ()
Sea Level Pressure  
Sea Level Pressure 29.98 in    
Wind  
Wind Speed 16 mph (South)    
Max Wind Speed 29 mph    
Max Gust Speed 37 mph    
Visibility 10 miles    
Events      
Averages and records for this station are not official NWS values.
T = Trace of Precipitation, MM = Missing Value Source: NWS Daily Summary

Daily Weather History Graph

Daily Weather History Graph

Search for Another Location

Airport:

Trip Planner

Search our weather history database for the weather conditions in past years. The results will help you decide how hot, cold, wet, or windy it might be!

Date:

Astronomy

Dec. 12, 2012 Rise Set
Actual Time 7:43 AM CST 5:15 PM CST
Civil Twilight 7:13 AM CST 5:45 PM CST
Nautical Twilight 6:40 AM CST 6:18 PM CST
Astronomical Twilight 6:08 AM CST 6:50 PM CST
Moon 6:49 AM CST (12/12) 4:53 PM CST (12/12)
Length of Visible Light 10h 31m
Length of Day
9h 31m
Waning Crescent, 1% of the Moon is Illuminated
Dec 12
Waning Crescent
Dec 13
New
Dec 19
First Quarter
Dec 28
Full
Jan 4
Last Quarter

Hourly Weather History & Observations

Time (CST) Temp. Windchill Dew Point Humidity Pressure Visibility Wind Dir Wind Speed Gust Speed Precip Events Conditions
12:15 AM 26.6 °F 16.8 °F 12.2 °F 55% 30.04 in 10.0 mi SSW 10.4 mph - N/A   Clear
12:35 AM 28.4 °F 18.0 °F 12.2 °F 51% 30.03 in 10.0 mi SSW 12.7 mph - N/A   Clear
12:55 AM 28.4 °F 17.5 °F 10.4 °F 47% 30.03 in 10.0 mi SSW 13.8 mph - N/A   Clear
1:15 AM 28.4 °F 18.0 °F 10.4 °F 47% 30.03 in 10.0 mi SSW 12.7 mph - N/A   Clear
1:35 AM 26.6 °F 16.2 °F 10.4 °F 51% 30.02 in 10.0 mi SSW 11.5 mph - N/A   Clear
1:55 AM 28.4 °F 18.0 °F 10.4 °F 47% 30.02 in 10.0 mi SSW 12.7 mph - N/A   Clear
2:15 AM 28.4 °F 17.5 °F 10.4 °F 47% 30.02 in 10.0 mi SSW 13.8 mph - N/A   Clear
2:35 AM 26.6 °F 16.2 °F 10.4 °F 51% 30.03 in 10.0 mi SSW 11.5 mph - N/A   Clear
2:55 AM 28.4 °F 18.5 °F 10.4 °F 47% 30.03 in 10.0 mi SSW 11.5 mph - N/A   Clear
3:15 AM 26.6 °F 15.7 °F 10.4 °F 51% 30.03 in 10.0 mi SSW 12.7 mph - N/A   Clear
3:35 AM 28.4 °F 16.6 °F 10.4 °F 47% 30.02 in 10.0 mi SSW 16.1 mph - N/A   Clear
3:55 AM 28.4 °F 17.5 °F 10.4 °F 47% 30.01 in 10.0 mi SSW 13.8 mph - N/A   Clear
4:15 AM 24.8 °F 13.4 °F 8.6 °F 50% 30.01 in 10.0 mi SSW 12.7 mph - N/A   Clear
4:35 AM 28.4 °F 16.6 °F 10.4 °F 47% 30.00 in 10.0 mi SSW 16.1 mph - N/A   Clear
4:55 AM 28.4 °F 16.2 °F 10.4 °F 47% 30.00 in 10.0 mi SSW 17.3 mph 21.9 mph N/A   Clear
5:15 AM 28.4 °F 16.2 °F 10.4 °F 47% 30.00 in 10.0 mi SSW 17.3 mph - N/A   Clear
5:35 AM 28.4 °F 17.0 °F 10.4 °F 47% 30.00 in 10.0 mi SSW 15.0 mph - N/A   Clear
5:55 AM 28.4 °F 17.0 °F 12.2 °F 51% 30.00 in 10.0 mi SSW 15.0 mph - N/A   Clear
6:15 AM 28.4 °F 17.0 °F 12.2 °F 51% 30.00 in 10.0 mi SSW 15.0 mph - N/A   Clear
6:35 AM 28.4 °F 16.6 °F 12.2 °F 51% 30.00 in 10.0 mi SSW 16.1 mph - N/A   Clear
7:15 AM 28.4 °F 16.6 °F 12.2 °F 51% 30.02 in 10.0 mi SSW 16.1 mph - N/A   Clear
7:35 AM 28.4 °F 15.8 °F 12.2 °F 51% 30.01 in 10.0 mi SSW 18.4 mph - N/A   Clear
7:55 AM 28.4 °F 15.4 °F 12.2 °F 51% 30.01 in 10.0 mi SSW 19.6 mph 26.5 mph N/A   Clear
8:15 AM 28.4 °F 16.2 °F 12.2 °F 51% 30.01 in 10.0 mi SSW 17.3 mph - N/A   Clear
8:35 AM 30.2 °F 17.4 °F 12.2 °F 47% 30.01 in 10.0 mi South 20.7 mph 25.3 mph N/A   Clear
8:55 AM 33.8 °F 22.5 °F 14.0 °F 44% 30.01 in 10.0 mi SSW 19.6 mph 25.3 mph N/A   Clear
9:15 AM 35.6 °F 24.8 °F 14.0 °F 41% 30.02 in 10.0 mi SSW 19.6 mph - N/A   Clear
9:35 AM 37.4 °F 26.9 °F 15.8 °F 41% 30.01 in 10.0 mi South 20.7 mph 28.8 mph N/A   Clear
9:55 AM 39.2 °F 29.8 °F 15.8 °F 39% 30.02 in 10.0 mi South 18.4 mph 27.6 mph N/A   Clear
10:15 AM 42.8 °F 33.5 °F 15.8 °F 34% 30.02 in 10.0 mi SSW 23.0 mph 32.2 mph N/A   Clear
10:35 AM 42.8 °F 34.3 °F 15.8 °F 34% 30.03 in 10.0 mi South 19.6 mph 27.6 mph N/A   Clear
10:55 AM 44.6 °F 35.9 °F 17.6 °F 34% 30.01 in 10.0 mi South 23.0 mph 26.5 mph N/A   Clear
11:15 AM 46.4 °F 38.7 °F 17.6 °F 32% 30.01 in 10.0 mi South 20.7 mph 28.8 mph N/A   Clear
11:35 AM 48.2 °F - 15.8 °F 27% 30.00 in 10.0 mi South 19.6 mph 31.1 mph 0.01 in   Clear
11:55 AM 50.0 °F - 17.6 °F 28% 29.99 in 10.0 mi South 24.2 mph 27.6 mph 0.01 in   Clear
12:15 PM 51.8 °F - 15.8 °F 24% 29.98 in 10.0 mi SSW 26.5 mph 33.4 mph N/A   Clear
12:35 PM 51.8 °F - 15.8 °F 24% 29.97 in 10.0 mi South 25.3 mph 34.5 mph N/A   Clear
12:55 PM 51.8 °F - 15.8 °F 24% 29.96 in 10.0 mi South 24.2 mph 35.7 mph N/A   Clear
1:15 PM 53.6 °F - 17.6 °F 24% 29.95 in 10.0 mi South 23.0 mph 32.2 mph N/A   Clear
1:35 PM 53.6 °F - 15.8 °F 22% 29.94 in 10.0 mi South 23.0 mph 35.7 mph N/A   Clear
1:55 PM 55.4 °F - 15.8 °F 21% 29.93 in 10.0 mi South 26.5 mph 34.5 mph N/A   Clear
2:15 PM 53.6 °F - 15.8 °F 22% 29.92 in 10.0 mi South 26.5 mph 34.5 mph N/A   Clear
2:35 PM 55.4 °F - 15.8 °F 21% 29.92 in 10.0 mi South 28.8 mph 35.7 mph N/A   Clear
2:55 PM 53.6 °F - 15.8 °F 22% 29.92 in 10.0 mi South 28.8 mph 36.8 mph N/A   Clear
3:15 PM 53.6 °F - 15.8 °F 22% 29.92 in 10.0 mi South 26.5 mph 33.4 mph N/A   Clear
3:35 PM 53.6 °F - 15.8 °F 22% 29.92 in 10.0 mi South 27.6 mph 35.7 mph N/A   Clear
3:55 PM 53.6 °F - 15.8 °F 22% 29.93 in 10.0 mi South 25.3 mph 31.1 mph N/A   Clear
4:15 PM 53.6 °F - 15.8 °F 22% 29.92 in 10.0 mi South 25.3 mph 29.9 mph N/A   Clear
4:35 PM 51.8 °F - 15.8 °F 24% 29.93 in 10.0 mi South 18.4 mph - N/A   Clear
4:55 PM 51.8 °F - 14.0 °F 22% 29.93 in 10.0 mi South 18.4 mph - N/A   Clear
5:15 PM 48.2 °F - 14.0 °F 25% 29.93 in 10.0 mi South 18.4 mph - N/A   Clear
5:35 PM 46.4 °F 39.8 °F 14.0 °F 27% 29.94 in 10.0 mi South 16.1 mph 20.7 mph N/A   Clear
5:55 PM 46.4 °F 40.1 °F 14.0 °F 27% 29.94 in 10.0 mi South 15.0 mph - N/A   Clear
6:15 PM 44.6 °F 37.4 °F 14.0 °F 29% 29.92 in 10.0 mi South 16.1 mph - N/A   Clear
6:55 PM 44.6 °F 37.2 °F 14.0 °F 29% 29.94 in 10.0 mi South 17.3 mph 21.9 mph N/A   Clear
7:15 PM 44.6 °F 36.9 °F 14.0 °F 29% 29.94 in 10.0 mi South 18.4 mph 24.2 mph N/A   Clear
7:35 PM 42.8 °F 35.4 °F 14.0 °F 31% 29.95 in 10.0 mi SSE 15.0 mph - N/A   Clear
7:55 PM 42.8 °F 34.5 °F 14.0 °F 31% 29.95 in 10.0 mi South 18.4 mph - N/A   Clear
8:15 PM 42.8 °F 34.5 °F 15.8 °F 34% 29.96 in 10.0 mi South 18.4 mph - N/A   Clear
8:35 PM 41.0 °F 32.8 °F 15.8 °F 36% 29.96 in 10.0 mi South 16.1 mph - N/A   Clear
8:55 PM 41.0 °F 32.8 °F 15.8 °F 36% 29.97 in 10.0 mi South 16.1 mph - N/A   Clear
9:15 PM 41.0 °F 32.8 °F 15.8 °F 36% 29.97 in 10.0 mi South 16.1 mph - N/A   Clear
9:35 PM 41.0 °F 32.8 °F 15.8 °F 36% 29.96 in 10.0 mi South 16.1 mph - N/A   Clear
9:55 PM 41.0 °F 33.9 °F 15.8 °F 36% 29.97 in 10.0 mi South 12.7 mph - N/A   Clear
10:15 PM 41.0 °F 32.2 °F 17.6 °F 39% 29.96 in 10.0 mi South 18.4 mph - N/A   Clear
10:35 PM 41.0 °F 32.5 °F 15.8 °F 36% 29.96 in 10.0 mi South 17.3 mph - N/A   Clear
10:55 PM 39.2 °F 30.5 °F 15.8 °F 39% 29.96 in 10.0 mi South 16.1 mph - N/A   Clear
11:15 PM 39.2 °F 30.5 °F 15.8 °F 39% 29.97 in 10.0 mi South 16.1 mph - N/A   Clear
11:35 PM 39.2 °F 30.5 °F 15.8 °F 39% 29.96 in 10.0 mi South 16.1 mph 23.0 mph N/A   Clear
11:55 PM 39.2 °F 30.2 °F 15.8 °F 39% 29.96 in 10.0 mi South 17.3 mph - N/A   Clear